DW1345 Weather Reports


time (UTC)temp
C
wind
direction
speed
KPH
gust
KPH
rain 1hr
cm
rain 24hr
cm
rain mn
cm
humidity
%
barometer
mb
20260904030021 8 85 0.0 0.0 0.00 0.00 0.03 95 1000.0
20260904024520 9 120 3.2 0.0 0.00 0.00 0.03 96 1000.0
20260904023026 8 70 0.0 0.0 0.00 0.00 0.03 95 1000.3
20260904021532 8 70 0.0 0.0 0.00 0.00 0.03 95 1000.1
20260904020018 9 71 0.0 0.0 0.00 0.00 0.03 95 1000.2
20260904014517 10 80 0.0 0.0 0.00 0.00 0.03 95 1000.1
20260904013014 9 93 0.0 0.0 0.00 0.00 0.03 96 1000.2
20260904011520 8 144 0.0 0.0 0.00 0.00 0.00 95 1000.2
20260904010008 8 185 0.0 0.0 0.00 0.00 0.00 95 1000.3
20260904004512 8 186 0.0 0.0 0.00 0.00 0.00 95 1000.4
20260904003005 7 190 0.0 0.0 0.00 0.00 0.00 95 1000.4
20260904001505 7 190 0.0 0.0 0.00 0.00 0.00 95 1000.7
20260904000002 7 190 0.0 0.0 0.00 0.00 0.00 94 1000.8
20260903234502 7 190 0.0 0.0 0.00 0.00 0.00 94 1000.6
20260903233100 7 190 0.0 0.0 0.00 0.00 0.00 94 1000.7
20260903231618 7 190 0.0 0.0 0.00 0.00 0.00 94 1000.7
20260903230104 7 191 0.0 0.0 0.00 0.00 0.00 93 1000.7
20260903224557 7 191 0.0 0.0 0.00 0.00 0.00 93 1000.6
20260903223053 7 191 0.0 0.0 0.00 0.00 0.00 93 1000.8
20260903221553 7 191 0.0 0.0 0.00 0.00 0.00 93 1000.6
20260903220106 8 192 0.0 0.0 0.00 0.00 0.00 93 1000.7
20260903214553 8 192 0.0 0.0 0.00 0.00 0.00 93 1000.7
20260903213051 8 192 0.0 0.0 0.00 0.00 0.00 93 1000.5
20260903211547 8 192 0.0 0.0 0.00 0.00 0.00 93 1000.6
20260903210050 8 192 0.0 0.0 0.00 0.00 0.00 92 1000.7
20260903204547 8 192 0.0 0.0 0.00 0.00 0.00 92 1000.8
20260903203046 9 192 0.0 0.0 0.00 0.00 0.00 92 1000.7
20260903201546 9 192 0.0 0.0 0.00 0.00 0.00 92 1000.7
20260903200046 10 192 0.0 0.0 0.00 0.00 0.00 91 1000.8
20260903194551 10 192 0.0 0.0 0.00 0.00 0.00 91 1000.8
20260903193051 10 192 0.0 0.0 0.00 0.00 0.00 90 1001.0
20260903191547 11 192 0.0 0.0 0.00 0.00 0.00 90 1000.8
20260903190055 11 192 0.0 0.0 0.00 0.00 0.00 89 1000.8
20260903184543 11 192 0.0 0.0 0.00 0.00 0.00 87 1000.6
20260903183042 12 192 0.0 0.0 0.00 0.00 0.00 86 1000.7
20260903181546 13 192 0.0 0.0 0.00 0.00 0.00 86 1000.7
20260903180047 13 192 0.0 0.0 0.00 0.00 0.00 85 1000.6
20260903174539 13 192 0.0 0.0 0.00 0.00 0.00 85 1000.5
20260903173046 13 192 0.0 0.0 0.00 0.00 0.00 85 1000.4
20260903171541 13 192 0.0 0.0 0.00 0.00 0.00 84 1000.5
20260903170052 13 192 0.0 0.0 0.00 0.00 0.00 82 1000.5
20260903164539 14 192 0.0 0.0 0.00 0.00 0.00 82 1000.3
20260903163050 14 192 0.0 0.0 0.00 0.00 0.00 82 1000.4
20260903161537 14 192 0.0 0.0 0.00 0.00 0.00 81 1000.3
20260903160036 14 192 0.0 0.0 0.00 0.00 0.00 81 1000.3
20260903154535 15 192 0.0 0.0 0.00 0.00 0.00 78 1000.3
20260903153035 15 191 0.0 0.0 0.00 0.00 0.00 78 1000.4
20260903151633 15 196 0.0 0.0 0.00 0.00 0.00 78 1000.4
20260903150046 15 194 0.0 0.0 0.00 0.00 0.00 78 1000.5
20260903144534 15 194 0.0 0.0 0.00 0.00 0.00 77 1000.4
20260903143036 15 217 0.0 0.0 0.00 0.00 0.00 77 1000.4
20260903141534 14 218 0.0 0.0 0.00 0.00 0.00 77 1000.4
20260903140029 14 217 0.0 0.0 0.00 0.00 0.00 79 1000.4
20260903134528 14 218 0.0 0.0 0.00 0.00 0.00 78 1000.4
20260903133029 13 223 0.0 0.0 0.00 0.00 0.00 80 1000.5
20260903131527 14 217 0.0 0.0 0.00 0.00 0.00 78 1000.6
20260903130026 14 186 0.0 0.0 0.00 0.00 0.00 79 1000.5
20260903124526 14 134 0.0 0.0 0.00 0.00 0.00 77 1000.4
20260903123028 15 128 0.0 0.0 0.00 0.00 0.00 76 1000.4
20260903121521 15 128 0.0 0.0 0.00 0.00 0.00 79 1000.3
20260903120020 14 128 0.0 0.0 0.00 0.00 0.00 80 1000.3
20260903114520 13 126 0.0 0.0 0.00 0.00 0.00 82 1000.3
20260903113018 13 126 0.0 0.0 0.00 0.00 0.00 81 1000.5
20260903111516 13 117 0.0 0.0 0.00 0.00 0.00 80 1000.4
20260903110014 13 116 0.0 0.0 0.00 0.00 0.00 80 1000.3
20260903104513 13 116 0.0 0.0 0.00 0.00 0.00 79 1000.4
20260903103012 13 116 3.2 0.0 0.00 0.00 0.00 78 1000.3
20260903101510 14 121 1.6 0.0 0.00 0.00 0.00 78 1000.2
20260903100018 15 120 0.0 0.0 0.00 0.00 0.00 80 1000.1
20260903094505 14 120 0.0 0.0 0.00 0.00 0.00 81 1000.0
20260903093002 14 119 0.0 0.0 0.00 0.00 0.00 84 1000.1
20260903091558 13 119 0.0 0.0 0.00 0.00 0.00 87 1000.0
20260903090056 12 119 0.0 0.0 0.00 0.00 0.00 89 1000.2
20260903084552 11 117 1.6 0.0 0.00 0.00 0.00 92 1000.0
20260903083055 11 67 0.0 0.0 0.00 0.00 0.00 93 1000.2
20260903081549 11 69 1.6 0.0 0.00 0.00 0.00 94 1000.1
20260903080047 11 77 3.2 0.0 0.00 0.00 0.00 93 1000.3
20260903074550 11 64 1.6 0.0 0.00 0.00 0.00 93 1000.3
20260903073049 11 155 0.0 0.0 0.00 0.00 0.00 94 1000.2
20260903071605 11 155 0.0 0.0 0.00 0.00 0.00 94 1000.2
20260903070059 11 155 0.0 0.0 0.00 0.00 0.00 94 1000.0
20260903064544 11 155 0.0 0.0 0.00 0.00 0.00 94 1000.0
20260903063044 11 173 0.0 0.0 0.00 0.00 0.00 96 999.9
20260903061543 10 174 0.0 0.0 0.00 0.00 0.00 96 1000.0
20260903060039 10 180 0.0 0.0 0.00 0.00 0.00 96 999.9
20260903054543 9 180 0.0 0.0 0.00 0.00 0.00 96 999.9
20260903053034 8 182 0.0 0.0 0.00 0.00 0.00 96 999.9
20260903051530 8 184 0.0 0.0 0.00 0.00 0.00 96 999.9
20260903050034 8 184 0.0 0.0 0.00 0.00 0.00 96 999.8
20260903044526 8 184 0.0 0.0 0.00 0.00 0.00 96 999.8
20260903043027 7 184 0.0 0.0 0.00 0.00 0.00 95 999.7
20260903041524 7 184 0.0 0.0 0.00 0.00 0.00 95 999.8
20260903040024 7 184 0.0 0.0 0.00 0.00 0.00 95 999.8
20260903034527 7 184 0.0 0.0 0.00 0.00 0.00 95 999.8
20260903033022 7 184 0.0 0.0 0.00 0.00 0.00 95 999.6
20260903031520 7 184 0.0 0.0 0.00 0.00 0.00 95 999.6